Location: Unspecified
(44.5000°N, 0.0000°E)
Time: 20:23:32
(UTC+00:00)

BEESAT - Visible Passes

Search period start: 04 April 2026 00:00
Search period end: 14 April 2026 00:00
Orbit: 684 x 693 km, 98.4° (Epoch: 29 March)

Date Brightness Start Highest point End Pass type
(mag) Time Alt. Az. Time Alt. Az. Time Alt. Az.
5 Apr ? 00:30:14 10° N 00:31:05 14° NNW 00:31:05 14° NNW visible
5 Apr ? 23:30:40 10° NNE 23:31:19 14° NNE 23:31:19 14° NNE visible
6 Apr ? 01:09:39 10° NNW 01:09:54 11° NNW 01:09:54 11° NNW visible
7 Apr ? 00:09:03 10° N 00:10:08 17° N 00:10:08 17° N visible
7 Apr ? 23:09:54 10° NNE 23:10:21 13° NNE 23:10:21 13° NNE visible
8 Apr ? 00:47:56 10° NNW 00:48:56 14° NNW 00:48:56 14° NNW visible
8 Apr ? 23:47:59 10° N 23:49:10 18° N 23:49:10 18° N visible
9 Apr ? 22:49:19 10° NE 22:49:23 10° NE 22:49:23 10° NE visible
10 Apr ? 00:26:34 10° N 00:27:58 18° NNW 00:27:58 18° NNW visible
10 Apr ? 23:27:04 10° NNE 23:28:11 17° NNE 23:28:11 17° NNE visible
11 Apr ? 01:05:50 10° NNW 01:06:46 13° NNW 01:06:46 13° NNW visible
12 Apr ? 00:05:23 10° N 00:06:59 21° N 00:06:59 21° N visible
12 Apr ? 23:06:19 10° NNE 23:07:12 15° NNE 23:07:12 15° NNE visible
13 Apr ? 00:44:12 10° NNW 00:45:47 18° NNW 00:45:47 18° NNW visible
13 Apr ? 23:44:20 10° NNE 23:46:00 22° NNE 23:46:00 22° NNE visible
